TimeEST,TemperatureF,Dew PointF,Humidity,Sea Level PressureIn,VisibilityMPH,Wind Direction,Wind SpeedMPH,Gust SpeedMPH,PrecipitationIn,Events,Conditions,WindDirDegrees,DateUTC
12:53 AM,51.1,46.9,86,30.47,7.0,Calm,Calm,-,N/A,,Clear,0,2012-11-12 05:53:00
1:53 AM,48.9,46.0,90,30.47,5.0,South,3.5,-,N/A,,Clear,190,2012-11-12 06:53:00
2:53 AM,50.0,46.9,89,30.47,5.0,Calm,Calm,-,N/A,,Clear,0,2012-11-12 07:53:00
3:33 AM,46.4,44.6,93,30.46,2.0,Calm,Calm,-,N/A,,Clear,0,2012-11-12 08:33:00
3:51 AM,44.6,42.8,93,30.46,3.0,South,3.5,-,N/A,,Clear,170,2012-11-12 08:51:00
3:53 AM,46.0,43.0,89,30.46,3.0,South,3.5,-,N/A,,Clear,170,2012-11-12 08:53:00
4:05 AM,46.4,42.8,87,30.46,1.2,South,3.5,-,N/A,,Clear,170,2012-11-12 09:05:00
4:07 AM,46.4,44.6,93,30.46,0.5,SSE,4.6,-,N/A,Fog,Fog,160,2012-11-12 09:07:00
4:19 AM,46.4,44.6,93,30.46,2.5,Calm,Calm,-,N/A,,Partly Cloudy,0,2012-11-12 09:19:00
4:31 AM,44.6,42.8,93,30.46,1.0,Calm,Calm,-,N/A,,Mist,0,2012-11-12 09:31:00
4:38 AM,42.8,41.0,93,30.46,0.2,SSE,4.6,-,N/A,Fog,Fog,160,2012-11-12 09:38:00
4:48 AM,46.4,42.8,87,30.46,1.2,South,4.6,-,N/A,,Partly Cloudy,170,2012-11-12 09:48:00
4:53 AM,46.9,45.0,93,30.46,2.0,South,4.6,-,N/A,,Partly Cloudy,170,2012-11-12 09:53:00
5:19 AM,46.4,44.6,93,30.46,1.5,South,3.5,-,N/A,,Clear,180,2012-11-12 10:19:00
5:23 AM,46.4,44.6,93,30.46,0.8,South,3.5,-,N/A,,Mist,170,2012-11-12 10:23:00
5:35 AM,46.4,44.6,93,30.46,1.5,South,4.6,-,N/A,,Partly Cloudy,170,2012-11-12 10:35:00
5:43 AM,48.2,46.4,93,30.46,2.5,South,4.6,-,N/A,,Partly Cloudy,170,2012-11-12 10:43:00
5:53 AM,48.0,46.0,93,30.46,6.0,South,3.5,-,N/A,,Clear,170,2012-11-12 10:53:00
6:15 AM,48.2,46.4,93,30.46,4.0,South,3.5,-,N/A,,Partly Cloudy,190,2012-11-12 11:15:00
6:53 AM,50.0,48.0,93,30.46,4.0,SSW,5.8,-,N/A,,Clear,200,2012-11-12 11:53:00
6:57 AM,50.0,48.2,94,30.46,2.5,SSW,4.6,-,N/A,,Partly Cloudy,200,2012-11-12 11:57:00
7:05 AM,50.0,48.2,94,30.47,3.0,SSW,5.8,-,N/A,,Scattered Clouds,200,2012-11-12 12:05:00
7:19 AM,51.8,48.2,88,30.47,3.0,South,5.8,-,N/A,,Mostly Cloudy,190,2012-11-12 12:19:00
7:39 AM,51.8,48.2,88,30.46,3.0,South,5.8,-,N/A,,Scattered Clouds,190,2012-11-12 12:39:00
7:53 AM,52.0,48.9,89,30.46,3.0,South,4.6,-,N/A,,Partly Cloudy,190,2012-11-12 12:53:00
8:13 AM,53.6,50.0,88,30.46,4.0,South,4.6,-,N/A,,Mostly Cloudy,190,2012-11-12 13:13:00
8:53 AM,54.0,51.1,90,30.46,5.0,Variable,4.6,-,N/A,,Overcast,0,2012-11-12 13:53:00
9:53 AM,57.0,52.0,83,30.45,6.0,Variable,3.5,-,N/A,,Haze,0,2012-11-12 14:53:00
10:00 AM,57.2,51.8,82,30.45,6.0,WSW,3.5,-,N/A,,Haze,250,2012-11-12 15:00:00
10:43 AM,60.8,51.8,72,30.44,10.0,SSW,8.1,-,N/A,,Mostly Cloudy,210,2012-11-12 15:43:00
10:53 AM,60.1,52.0,75,30.43,10.0,SSW,8.1,-,N/A,,Mostly Cloudy,200,2012-11-12 15:53:00
11:53 AM,61.0,53.1,75,30.42,10.0,SW,9.2,16.1,N/A,,Mostly Cloudy,220,2012-11-12 16:53:00
12:53 PM,64.0,54.0,70,30.40,10.0,SSW,4.6,-,N/A,,Mostly Cloudy,210,2012-11-12 17:53:00
1:00 PM,64.4,53.6,68,30.39,10.0,SW,5.8,-,N/A,,Mostly Cloudy,230,2012-11-12 18:00:00
1:53 PM,66.0,53.1,63,30.37,10.0,South,11.5,-,N/A,,Mostly Cloudy,190,2012-11-12 18:53:00
2:53 PM,66.0,53.1,63,30.35,10.0,South,15.0,19.6,N/A,,Overcast,180,2012-11-12 19:53:00
3:53 PM,64.9,53.1,65,30.33,10.0,South,8.1,-,N/A,,Mostly Cloudy,180,2012-11-12 20:53:00
4:53 PM,63.0,54.0,72,30.32,10.0,South,9.2,-,N/A,,Mostly Cloudy,170,2012-11-12 21:53:00
5:53 PM,63.0,54.0,72,30.31,10.0,South,9.2,-,N/A,,Overcast,170,2012-11-12 22:53:00
6:53 PM,62.1,55.9,80,30.29,10.0,South,6.9,16.1,N/A,,Mostly Cloudy,180,2012-11-12 23:53:00
7:03 PM,62.6,55.4,77,30.29,10.0,South,9.2,-,N/A,,Mostly Cloudy,180,2012-11-13 00:03:00
7:43 PM,62.6,57.2,82,30.28,10.0,South,9.2,18.4,N/A,,Mostly Cloudy,170,2012-11-13 00:43:00
7:53 PM,63.0,57.0,81,30.27,10.0,South,11.5,18.4,N/A,,Overcast,180,2012-11-13 00:53:00
8:25 PM,62.6,57.2,82,30.26,10.0,South,11.5,18.4,N/A,,Overcast,170,2012-11-13 01:25:00
8:53 PM,63.0,57.0,81,30.26,10.0,South,8.1,-,N/A,,Overcast,180,2012-11-13 01:53:00
9:53 PM,63.0,57.0,81,30.25,10.0,South,8.1,-,0.00,,Overcast,180,2012-11-13 02:53:00
10:14 PM,62.6,57.2,82,30.24,10.0,South,8.1,-,0.00,Rain,Light Rain,170,2012-11-13 03:14:00
10:53 PM,62.1,57.9,86,30.23,10.0,South,8.1,-,0.00,,Overcast,180,2012-11-13 03:53:00
11:38 PM,62.6,57.2,82,30.21,10.0,South,4.6,-,0.00,,Overcast,190,2012-11-13 04:38:00
11:53 PM,62.1,57.9,86,30.21,10.0,SSW,5.8,-,0.00,,Overcast,200,2012-11-13 04:53:00